Location: Unspecified
(0.0000°N, 0.0000°E)
Time: 06:40:45
(UTC+00:00)

Hubble Space Telescope - Pass Details

Date: 27 May 2019
Orbit: 536 x 540 km, 28.5° (Epoch: 14 September)

Event Time Altitude Azimuth Distance (km) Brightness Sun altitude
Rises 19:24:52 0° 299° (WNW) 2,668 5.9 -20.3°
Reaches altitude 10° 19:27:07 10° 298° (WNW) 1,778 4.6 -20.9°
Maximum altitude 19:31:14 81° 210° (SSW) 543 0.7 -21.8°
Enters shadow 19:31:30 75° 158° (SSE) 554 0.6 -21.9°
